Location: Helstorf
(52.5868°N, 9.5862°E)
Time: 21:30:15
(UTC+00:00)

Cosmos 2221 - Pass Details

Date: 15 May 2026
Orbit: 569 x 587 km, 82.5° (Epoch: 10 June)

Event Time Altitude Azimuth Distance (km) Brightness Sun altitude
Exits shadow 22:03:28 29° 131° (SE) 1,082 3.3 -16.6°
Maximum altitude 22:04:47 37° 92° (E) 919 3.2 -16.6°
Drops below altitude 10° 22:08:40 10° 25° (NNE) 1,910 5.7 -16.8°
Sets 22:10:59 0° 17° (NNE) 2,818 6.9 -16.9°
